Location: Limoges
(45.8354°N, 1.2645°E)
Time: 20:05:13
(UTC+01:00)

ISS - Visible Passes

Search period start: 09 November 2025 00:00
Search period end: 19 November 2025 00:00
Orbit: 415 x 421 km, 51.6° (Epoch: 08 November)

Date Brightness Start Highest point End Pass type
(mag) Time Alt. Az. Time Alt. Az. Time Alt. Az.
11 Nov -1.0 19:46:29 10° SSW 19:46:55 13° SSW 19:46:55 13° SSW visible
12 Nov -2.0 18:59:10 10° S 19:01:16 19° SE 19:01:16 19° SE visible
13 Nov -1.5 18:12:31 10° SSE 18:13:51 12° SE 18:15:11 10° ESE visible
13 Nov -1.9 19:46:46 10° SW 19:48:28 27° SW 19:48:28 27° SW visible
14 Nov -3.4 18:58:55 10° SW 19:02:08 46° SE 19:02:36 43° ESE visible
15 Nov -2.6 18:11:15 10° SSW 18:14:12 29° SE 18:16:38 13° E visible
15 Nov -1.9 19:47:33 10° W 19:49:34 31° W 19:49:34 31° W visible
16 Nov -3.8 18:59:23 10° WSW 19:02:43 76° NNW 19:03:30 49° NE visible
17 Nov -3.7 18:11:18 10° SW 18:14:38 72° SSE 18:17:22 14° ENE visible
17 Nov -1.6 19:48:30 10° W 19:50:18 24° WNW 19:50:18 24° WNW visible
18 Nov -3.0 19:00:10 10° W 19:03:22 42° NNW 19:04:06 36° NNE visible
